Wind_Speed
9 7 14 8 4 3 2 5 6 15 18 20 12 13 15 14 18 18 15 13 13 13 13 12 11 9 11 10 10 11 11 8 6
14 11 7 8 3 4 3 5 7 12 16 11 10 11 14 15 20 19 18 16 15 15 15 13 12 11 12 11 13 10 10 8 5
10 10 14 7 7 6 3 5 8 8 9 11 9 10 11 15 18 20 18 17 17 18 16 15 14 12 14 14 15 12 9 11 11
10 11 13 8 3 2 1 1 6 8 7 5 6 8 9 12 18 19 18 18 18 18 18 18 17 15 15 14 16 15 15 14 14
12 10 12 8 4 1 2 6 8 8 9 4 3 10 9 9 13 16 16 17 17 17 18 19 17 15 15 13 12 14 16 16 18
14 14 12 11 4 4 4 4 5 7 9 9 6 5 8 6 11 13 15 17 17 17 17 16 14 12 10 11 13 13 13 14 16
15 11 12 9 4 5 6 5 6 5 2 2 5 7 8 6 7 10 11 11 14 15 15 13 14 13 12 13 14 14 13 13 14
20 17 15 13 8 5 4 5 7 7 6 6 6 7 8 11 11 10 9 10 11 13 13 13 14 13 12 13 14 14 14 15 17
24 23 20 16 15 14 14 13 6 7 11 12 11 10 11 13 12 12 12 13 13 13 12 12 13 13 14 14 13 12 13 15 16
23 25 26 23 21 22 22 17 16 16 10 14 14 15 13 14 15 16 16 16 17 17 16 16 14 13 12 10 11 10 11 12 15
20 20 24 26 25 24 27 22 19 16 12 12 15 16 14 14 15 15 17 18 18 18 17 16 15 14 13 13 13 12 14 15 16
29 25 22 24 26 25 27 25 23 19 17 12 14 15 16 16 17 18 19 18 18 17 17 16 15 15 16 16 16 16 17 17 17
33 31 27 26 26 27 28 29 28 27 23 18 15 15 16 20 19 19 21 20 20 20 18 19 20 20 21 21 20 20 21 23 24
33 32 32 30 30 29 30 32 33 33 29 25 20 20 18 21 22 21 21 21 21 22 22 22 23 24 23 25 25 24 23 24 26
33 32 32 33 34 35 34 32 32 36 38 34 26 22 24 23 23 23 23 24 24 25 24 25 26 28 28 28 30 29 25 25 26
33 34 34 33 34 36 39 39 37 36 34 37 35 30 27 30 30 30 29 28 27 30 30 29 27 29 27 28 33 36 32 27 28
35 36 36 37 38 37 37 37 41 41 41 39 38 37 34 32 32 37 29 33 30 32 34 38 32 31 36 35 34 38 38 32 31
36 37 37 37 37 39 39 40 40 41 43 42 41 43 41 38 39 36 36 40 34 33 31 33 33 37 38 36 41 42 40 40 33
38 35 35 36 35 37 37 38 40 44 43 42 44 45 44 41 43 40 43 36 36 35 35 33 35 33 37 41 41 45 44 39 37
39 35 36 35 35 34 33 33 36 37 43 46 44 47 48 46 46 42 45 43 40 39 39 36 37 38 39 43 56 59 46 38 36
Wind_Direction
4 353 340 198 208 251 323 271 289 266 284 256 245 239 237 231 232 236 232 228 222 216 220 224 240 251 258 261 270 285 260 246 239
2 341 7 353 326 169 346 330 303 313 315 212 208 225 238 231 228 232 230 230 233 232 232 239 243 248 254 264 270 280 251 264 267
356 354 354 341 17 24 3 333 314 304 336 223 200 212 232 229 223 229 230 230 233 241 245 249 250 251 252 258 262 266 258 270 279
348 354 346 327 291 33 349 298 284 280 298 242 201 211 230 225 221 224 228 232 235 240 246 249 251 248 253 255 260 267 265 261 268
311 328 356 344 264 256 223 227 233 238 253 274 323 212 220 223 225 227 225 229 235 239 246 254 253 251 249 251 262 266 264 261 263
318 295 313 345 295 232 238 231 219 249 257 253 228 209 217 222 230 229 231 237 239 241 241 243 248 246 253 260 263 264 271 265 272
301 307 311 303 323 262 254 224 174 169 202 278 268 248 238 232 229 226 233 232 231 232 232 235 236 243 251 255 260 263 270 276 278
274 279 285 296 264 287 343 285 278 270 235 211 225 242 234 231 231 226 219 223 226 235 233 237 241 243 246 252 257 262 267 268 269
262 265 265 272 267 250 278 283 289 317 278 273 265 255 251 238 228 228 229 233 231 234 232 231 234 238 243 247 251 254 259 265 273
264 260 258 257 259 259 264 271 273 280 277 261 258 261 266 256 247 240 228 225 226 225 226 228 231 233 235 238 246 254 260 268 276
261 262 264 255 252 255 260 262 261 259 263 261 260 260 258 254 244 242 236 229 226 224 222 221 225 231 237 245 252 260 269 278 281
258 255 257 255 248 249 253 256 254 251 251 272 254 258 253 246 242 238 235 231 229 229 234 240 249 255 258 261 265 268 272 276 275
259 254 250 250 245 243 243 248 253 256 251 251 252 243 247 246 243 240 243 240 236 242 249 257 258 261 267 267 266 268 273 277 278
265 259 252 248 248 246 243 245 251 256 255 249 244 241 235 242 243 241 244 250 256 258 260 262 268 273 277 277 273 269 275 280 284
265 263 259 255 250 247 247 245 246 250 254 255 244 237 241 244 245 246 244 252 257 265 270 273 278 281 281 281 279 276 274 278 286
262 260 258 255 252 250 247 246 245 242 245 251 247 247 242 238 246 249 254 255 260 268 273 275 273 277 280 281 284 280 279 284 288
261 259 256 254 252 250 250 250 248 245 242 240 248 248 250 248 254 252 258 258 262 275 276 273 269 277 278 274 276 280 285 286 287
262 261 259 255 251 249 247 245 247 247 245 246 246 248 251 250 253 256 256 259 264 268 276 276 267 267 264 271 279 278 283 288 285
266 263 257 254 248 246 247 248 246 247 246 245 245 246 251 250 250 250 257 256 264 263 268 274 271 274 260 267 273 280 275 282 283
264 259 253 248 244 246 247 250 251 250 249 248 247 245 249 250 255 249 247 251 257 264 268 274 274 272 277 268 271 265 263 275 278
Height
5884 5882 5879 5878 5880 5882 5884 5884 5884 5884 5885 5886 5887 5890 5893 5895 5897 5898 5900 5902 5905 5907 5909 5910 5910 5912 5913 5913 5914 5914 5914 5914 5914
5883 5881 5879 5877 5877 5879 5880 5881 5882 5881 5881 5880 5881 5886 5889 5891 5893 5896 5898 5900 5903 5905 5907 5908 5909 5910 5911 5912 5912 5912 5912 5912 5913
5883 5881 5879 5878 5876 5877 5877 5878 5879 5879 5879 5880 5880 5882 5885 5887 5890 5892 5896 5898 5899 5902 5904 5906 5907 5907 5908 5909 5910 5910 5910 5910 5911
5883 5882 5879 5877 5876 5875 5875 5875 5875 5877 5877 5878 5878 5879 5882 5884 5886 5888 5892 5894 5897 5899 5901 5903 5904 5904 5905 5906 5906 5906 5907 5908 5909
5882 5881 5880 5877 5875 5874 5873 5874 5874 5874 5874 5875 5876 5877 5879 5880 5883 5886 5888 5890 5893 5895 5898 5899 5901 5901 5902 5903 5904 5904 5904 5905 5907
5880 5878 5878 5878 5876 5875 5873 5872 5872 5873 5872 5873 5874 5875 5877 5877 5880 5882 5884 5886 5889 5891 5893 5895 5897 5898 5899 5900 5901 5901 5901 5903 5903
5877 5876 5875 5875 5875 5874 5873 5873 5871 5871 5872 5873 5874 5876 5877 5877 5878 5879 5881 5882 5884 5886 5889 5891 5893 5894 5895 5896 5898 5898 5898 5899 5900
5872 5872 5872 5871 5871 5871 5872 5872 5872 5872 5871 5870 5872 5873 5874 5875 5877 5877 5878 5879 5881 5884 5885 5887 5889 5891 5892 5893 5894 5894 5895 5895 5895
5866 5866 5867 5868 5867 5867 5868 5869 5869 5870 5870 5870 5871 5871 5872 5873 5873 5874 5875 5877 5878 5880 5881 5882 5884 5886 5887 5888 5889 5890 5891 5891 5892
5859 5859 5860 5862 5863 5863 5863 5864 5865 5866 5866 5867 5867 5868 5869 5870 5871 5872 5871 5873 5874 5875 5876 5877 5879 5880 5882 5883 5884 5885 5885 5885 5886
5852 5853 5852 5854 5856 5857 5857 5858 5860 5861 5861 5861 5862 5863 5865 5867 5867 5868 5869 5869 5870 5872 5872 5873 5874 5876 5877 5878 5880 5881 5881 5881 5880
5845 5846 5846 5846 5848 5849 5850 5850 5852 5854 5856 5857 5856 5858 5860 5862 5863 5863 5865 5866 5867 5868 5870 5871 5872 5873 5875 5875 5875 5875 5876 5876 5874
5835 5837 5839 5839 5840 5841 5843 5843 5844 5846 5849 5851 5852 5852 5855 5857 5858 5860 5862 5863 5863 5865 5867 5868 5868 5868 5870 5870 5870 5870 5870 5870 5869
5825 5826 5829 5831 5832 5833 5835 5836 5838 5839 5840 5843 5845 5847 5848 5850 5852 5854 5856 5858 5860 5861 5862 5863 5864 5864 5864 5866 5865 5863 5862 5862 5862
5815 5816 5818 5820 5823 5825 5826 5828 5830 5831 5832 5833 5836 5838 5841 5843 5845 5848 5849 5851 5853 5855 5856 5858 5859 5860 5860 5860 5859 5858 5854 5853 5853
5805 5806 5807 5809 5811 5813 5816 5819 5821 5821 5823 5825 5827 5831 5833 5835 5837 5840 5843 5845 5848 5849 5849 5851 5852 5852 5853 5853 5853 5853 5851 5848 5845
5793 5794 5796 5797 5798 5801 5804 5806 5809 5811 5813 5816 5818 5820 5824 5828 5831 5830 5834 5838 5840 5842 5843 5843 5843 5844 5843 5845 5845 5845 5846 5843 5840
5780 5781 5782 5784 5786 5788 5791 5793 5796 5798 5802 5805 5807 5809 5813 5817 5820 5822 5824 5818 5826 5832 5832 5832 5833 5832 5832 5835 5835 5836 5838 5837 5834
5766 5767 5769 5771 5773 5775 5778 5781 5784 5786 5788 5792 5796 5799 5801 5806 5809 5812 5814 5816 5819 5822 5822 5822 5822 5822 5822 5823 5824 5825 5828 5829 5827
5754 5755 5756 5759 5761 5764 5767 5769 5771 5774 5776 5779 5782 5786 5789 5793 5796 5799 5802 5804 5807 5808 5808 5809 5811 5810 5810 5812 5811 5810 5816 5819 5818